Αρχική σελίδα
METAR-TAF:

METAR-TAF

Αεροδρόμια :

Gage, Οκλαχόμα, Ηνωμένες Πολιτείες Αμερικής

γεωγραφικό πλάτος: 36-17-48N, γεωγραφικό μήκος: 099-46-08W, υψόμετρο: 677 μ

Παρών καιρός

Η αναφορά έγινε 43 λεπτά πριν, στις 10:53 UTC
Άνεμος 10 kt από Ν
Θερμοκρασία 22°C
Υγρασία 73%
Πίεση 1014 hPa
Ορατότητα: 16.1 χλμ
Καθαρός ουρανός

METAR: KGAG 191053Z AUTO 17010KT 10SM CLR 22/17 A2994 RMK AO2 SLP107 T02220172

Χρόνος: 06:36 (11:36 UTC)


TAF: λείπει

Μετεωρολογικές αναφορές και προγνώσεις για περισσότερα από 4000 αεροδρόμια (δελτία METAR και TAF).

Οι διαθέσιμοι σταθμοί απεικονίζονται στο χάρτη με κίτρινες και κόκκινες κουκκίδες.

Μετακινήστε το ποντίκι πάνω από τις κουκκίδες για να δείτε το όνομα του σταθμού.

Στη συνέχεια, κάντε κλικ για να δείτε τις μετεωρολογικές αναφορές και τις προγνώσεις καιρού.

Για να αλλάξετε το χάρτη: κάντε κλικ στα πράσινα κουμπιά με τον μαύρο σταυρό για να ζουμάρετε, στο πράσινο κουμπί με την παύλα για να αφαιρέσετε το ζουμ ή στα πράσινα βέλη για να αντιπαραβάλλετε χάρτες.


METAR-TAF: